BEIDOU 3 (36287 NORAD) Tracking and Keplerian Element Data

This shows tracking and keplerian element data for the satellite.

Feedback or suggestion? Click here.




ElementValue
Catalog36287
NameBEIDOU 3
Epoch Orbit4182
Epoch Day165.93154847
Epoch Year2021
RAAN46.2149
Inclination1.8704
Eccentricity0.0005327
Argument of Perigee78.9068
Mean Anonmoly254.0875
Mean Motion1.00268938
Decay Rate-2.73E-06
L11 36287U 10001A 21165.93154847 -.00000273 00000-0 00000-0 0 9997
L22 36287 1.8704 46.2149 0005327 78.9068 254.0875 1.00268938 41822

Live tracking and technical data element details for BEIDOU 3 (NORAD 36287). BEIDOU 3 can be tracked NOW for your location showing map with azimuth and elevation plus other details from your city location.

Track the satellite on the map from your city or location and see movement details for azimuth, elevation, latitude, longitude, range, height, and movement on the map or in text.







IsCatalogInMostPopularTable: catalog: 36287, numindb: 391
Update: records affected: 1



GetName: 36287 BEIDOU 3

Hit Count: updated at: Tue, 15 Jun 2021 09:13:55 GMT